Weather Service Report


492 
ASUS44 KMEG 180310
RWRMEG
MEMPHIS CWA HOURLY WEATHER ROUNDUP
NATIONAL WEATHER SERVICE MEMPHIS TN
1000 PM CDT THU APR 17 2014

...WEST TENNESSEE...
  
CITY           SKY/WX    TMP DP  RH WIND       PRES   REMARKS
MEMPHIS INTL   CLOUDY    63  42  46 SE6       30.23S                  
NWS MEMPHIS      N/A     57 N/A N/A MISG        N/A                   
JACKSON        CLOUDY    53  41  63 CALM      30.25R                  
LEXINGTON      CLEAR     55  39  54 CALM      30.25R                  
SAVANNAH       CLOUDY    59  44  57 CALM      30.25R                  
DYERSBURG      CLOUDY    57  39  51 E6        30.25S                  
UNION CITY     CLEAR     54  45  71 CALM      30.24S                  
PARIS          MOCLDY    51  38  61 CALM      30.25S                  


...EASTERN ARKANSAS...
  
CITY           SKY/WX    TMP DP  RH WIND       PRES   REMARKS
JONESBORO      PTCLDY    54  45  71 NE6       30.23S                  
WEST MEMPHIS   HAZE      56  50  80 CALM      30.22S VSB 1/4          
BATESVILLE     PTCLDY    59  41  51 SE3       30.23R                  
NEWPORT        PTCLDY    58  51  77 CALM      30.23F                  
WALNUT RIDGE   MOCLDY    57  48  72 E5        30.23S                  
BLYTHEVILLE    MOCLDY    55  47  74 N3        30.24R                  
SEARCY         MOCLDY    59  50  72 CALM      30.23S                  
STUTTGART      MOCLDY    61  46  59 E3        30.22S                  
PINE BLUFF     MOCLDY    57  49  74 CALM      30.22R                  
MONTICELLO     LGT RAIN  55  50  83 CALM      30.20S                  


...NORTH MISSISSIPPI...
  
CITY           SKY/WX    TMP DP  RH WIND       PRES   REMARKS
TUPELO         CLOUDY    61  49  64 CALM      30.23S                  
OXFORD         CLOUDY    55  48  76 CALM      30.24F                  
OLIVE BRANCH   CLEAR     57  45  62 SE6       30.24S                  
TUNICA         CLOUDY    61  46  59 E5        30.24R                  
CLARKSDALE       N/A     59  50  72 CALM      30.23S                  
CORINTH        CLOUDY    59  46  63 CALM      30.24R                  
GRENADA        CLOUDY    55  52  88 CALM      30.22S                  
GREENWOOD      CLOUDY    57  51  80 NE3       30.20F                  
COLUMBUS       CLOUDY    59  51  76 N3        30.21F                  
STARKVILLE     FAIR      55  52  88 CALM      30.21F                  
GOLDEN TRIANGL CLOUDY    57  50  77 NW3       30.24S                  


...SOUTHEAST MISSOURI...
  
CITY           SKY/WX    TMP DP  RH WIND       PRES   REMARKS
DONIPHAN         N/A     53  44  71 N2          N/A                   
WEST PLAINS    MOCLDY    56  36  47 SE6       30.24R                  
POPLAR BLUFF   PTCLDY    59  42  53 SE3       30.23S                  
CAPE GIRARDEAU MOCLDY    51  46  83 CALM      30.25R                  


...NORTHWEST ALABAMA...
  
CITY           SKY/WX    TMP DP  RH WIND       PRES   REMARKS
MUSCLE SHOALS  CLOUDY    59  47  64 E3        30.25R                  


...MIDDLE TENNESSEE...
  
CITY           SKY/WX    TMP DP  RH WIND       PRES   REMARKS
NASHVILLE      CLOUDY    57  40  52 S3        30.27S                  
CLARKSVILLE    MOCLDY    57  34  41 SE5       30.26S                  
DICKSON        MOCLDY    57  36  44 CALM      30.26S                  
COLUMBIA       CLEAR     54  48  82 CALM      30.26R                  
LEWISBURG      MOCLDY    49  44  83 CALM      30.27R                  


...WESTERN KENTUCKY...
  
CITY           SKY/WX    TMP DP  RH WIND       PRES   REMARKS
PADUCAH        MOCLDY    56  41  57 CALM      30.25S                  
FORT CAMPBELL  MOCLDY    57  37  47 SE3       30.26R                  


...CENTRAL ARKANSAS...
  
CITY           SKY/WX    TMP DP  RH WIND       PRES   REMARKS
LITTLE ROCK    MOCLDY    61  46  57 SE5       30.22R                  


SKY/WX REPORTED AS FAIR MEANS FEW OR NO CLOUDS BELOW
12 THOUSAND FEET.


Return to Home page


Western Regional Climate Center, wrcc@dri.edu